Regional Weather Roundup
Issued by NWS

Home | Current Version | Previous Version | Graphics & Text | Print | Product List | Glossary On
Versions: 1 2 3 4 5 6 7 8 9 10 11 12 13 14 15 16 17 18 19 20 21 22 23 24 25 26 27 28 29 30 31 32 33 34 35 36 37 38 39 40 41 42 43 44 45 46 47 48 49 50
000
ASUS43 KMPX 270901
RWRMN
WEATHER ROUNDUP FOR MINNESOTA
NATIONAL WEATHER SERVICE TWIN CITIES/CHANHASSEN MN
400 AM CDT SUN MAY 27 2018


NOTE: "FAIR" INDICATES FEW OR NO CLOUDS BELOW 12,000 FEET WITH NO
SIGNIFICANT WEATHER AND/OR OBSTRUCTIONS TO VISIBILITY. N/A MEANS
CURRENT SKY AND/OR WEATHER CONDITIONS ARE NOT AVAILABLE.

MNZ060>063-068>070-271000-
   Twin Cities Metro

CITY           SKY/WX    TMP DP  RH WIND       PRES   REMARKS
TWIN CITIES    FAIR      68  63  84 NW3       29.77S
ST PAUL        FAIR      64  59  83 CALM      29.77S
CRYSTAL        FAIR      62  58  86 CALM      29.76R
BLAINE         FAIR      64  61  88 N3        29.77S
LAKEVILLE      FAIR      63  63 100 CALM      29.77S
EDEN PRAIRIE   FAIR      67  64  90 N3        29.76S
SOUTH ST PAUL  FAIR      68  62  81 CALM      29.77S
LAKE ELMO      FAIR      61  57  88 CALM      29.79S
$$
MNZ001>005-007-008-013>017-022>024-027-028-271000-
   Northwest Minnesota

CITY           SKY/WX    TMP DP  RH WIND       PRES   REMARKS
BEMIDJI        FOG       52  51  96 CALM      29.79S VSB 1/2
HALLOCK        FAIR      61  55  82 E6        29.74F
ROSEAU         FAIR      57  54  88 CALM      29.77F
WARROAD        FAIR      55  52  88 CALM      29.78F
THIEF RVR FALL FAIR      61  57  88 NE3       29.77F FOG
CROOKSTON      FAIR      66  57  72 E9        29.74F
FOSSTON        FAIR      61  52  72 CALM      29.77F
DETROIT LAKES  FAIR      63  54  72 CALM      29.78F
MOORHEAD       FAIR      64  50  59 SE3       29.73F
PARK RAPIDS    FAIR      56  52  86 CALM      29.78S
MAHNOMEN       FAIR      64  56  73 E6        29.76F
$$
MNZ006-009>011-018-025>026-271000-
   North Central Minnesota

CITY           SKY/WX    TMP DP  RH WIND       PRES   REMARKS
BAUDETTE         N/A    N/A N/A N/A MISG      29.78R
FLAG ISLAND    FAIR      64  61  88 CALM      29.78R
INTL FALLS     FAIR      51  51 100 CALM      29.78R
WASKISH        FAIR      55  54  94 CALM      29.79R
BIG FORK       FAIR      52  52 100 CALM      29.79S FOG
LONGVILLE      FAIR      55  54  94 CALM      29.79S
GRAND RAPIDS   FAIR      56  56 100 CALM      29.82R FOG
CRANE LAKE     FAIR      48  48 100 CALM      29.80R FOG
ORR            FAIR      54  52  94 CALM      29.77R FOG
COOK           FAIR      55  54  94 CALM      29.79S
WALKER         FAIR      55  54  97 CALM      29.79S
$$
MNZ012-019>021-037-271000-
   Northeast Minnesota

CITY           SKY/WX    TMP DP  RH WIND       PRES   REMARKS
DULUTH         FAIR      56  53  90 W3        29.79S
ELY            FAIR      54  54 100 CALM      29.80R
HIBBING        FAIR      49  49 100 NW3       29.80R FOG
EVELETH        FOG       50  50 100 CALM      29.82R VSB 1/2
DULUTH HARBOR  CLOUDY    50  48  93 SW5       29.79S FOG
TWO HARBORS    FAIR      50  46  87 CALM      29.76F
SILVER BAY     FAIR      52  52 100 CALM      29.77S
GRAND MARAIS     N/A     42  41  96 SW8       29.77S
G MARAIS ARPRT FAIR      52  48  87 CALM      29.80S
$$
MNZ029>031-032-039>041-046>048-054>057-064-271000-
   West Central Minnesota

CITY           SKY/WX    TMP DP  RH WIND       PRES   REMARKS
FERGUS FALLS   FAIR      70  54  56 E6        29.71R
WHEATON        CLOUDY    63  52  67 SE7       29.75S
MORRIS         CLOUDY    66  52  59 E8        29.74F
ALEXANDRIA     FAIR      68  55  63 SE5       29.79S
ELBOW LAKE     FAIR      68  52  56 E7        29.76S
WADENA         FAIR      55  54  94 CALM      29.78S
GLENWOOD       FAIR      66  57  72 E5        29.79S
APPLETON       CLOUDY    64  52  63 SE3       29.74F
BENSON         CLOUDY    63  54  72 CALM      29.77F
ORTONVILLE     CLOUDY    66  55  68 SE3       29.74S
MADISON        CLOUDY    68  54  60 CALM      29.75S
WILLMAR        FAIR      63  55  77 CALM      29.80R
$$
MNZ033>034-036-042>043-049>051-058-059-271000-
   Central Minnesota

CITY           SKY/WX    TMP DP  RH WIND       PRES   REMARKS
ST CLOUD       FAIR      58  55  90 CALM      29.77S
SAUK CENTRE    FAIR      58  53  85 CALM      29.79R
PAYNESVILLE    FAIR      60  58  94 CALM      29.79R
AITKIN           N/A     50  48  93 CALM      29.78S FOG
PINE RIVER     FAIR      54  52  94 CALM      29.83R
BRAINERD       FAIR      57  54  89 CALM      29.79R
STAPLES        FAIR      57  55  94 CALM      29.78F
LONG PRAIRIE   FAIR      59  52  77 CALM      29.78F
LITTLE FALLS   FAIR      55  55 100 CALM      29.78S
LITCHFIELD     FAIR      66  61  82 CALM      29.78S
BUFFALO        FAIR      61  54  78 CALM      29.78F
MAPLE LAKE     FAIR      61  58  89 CALM      29.78S
HUTCHINSON     FAIR      63  61  91 CALM      29.79S
$$
MNZ037-044-045-052-053-271000-
   East Central Minnesota

CITY           SKY/WX    TMP DP  RH WIND       PRES   REMARKS
PRINCETON      FAIR      57  55  94 CALM      29.78S
MORA           FAIR      55  54  94 CALM      29.80S
CAMBRIDGE      FAIR      59  50  72 CALM      29.78S
RUSH CITY      MOCLDY    55  53  92 CALM      29.78S
MOOSE LAKE     CLOUDY    50  48  93 CALM      29.78S FOG
HINCKLEY       FAIR      55  54  94 CALM      29.79S
CLOQUET        FAIR      50  46  87 CALM      29.80R
MCGREGOR       FAIR      52  52 100 CALM      29.80S
$$
MNZ071>073-080-081-089-090-097-098-271000-
   Southwest Minnesota

CITY           SKY/WX    TMP DP  RH WIND       PRES   REMARKS
MONTEVIDEO     CLOUDY    64  52  63 S3        29.76S
CANBY          CLOUDY    70  54  57 S3        29.76F
MARSHALL       CLEAR     68  56  65 SW5       29.77S
REDWOOD FALLS  CLEAR     65  57  75 S3        29.76S
OLIVIA         CLEAR     66  55  68 CALM      29.77S
PIPESTONE      CLEAR     70  54  56 SE7       29.80F
WINDOM         CLEAR     66  46  48 CALM      29.79F
WORTHINGTON    CLEAR     66  53  63 CALM      29.81F
JACKSON        CLEAR     68  54  60 CALM      29.81S
TRACY          CLEAR     76  51  41 S7        29.78S
$$
MNZ065>067-074>077-082>085-091>093-271000-
   South Central Minnesota

CITY           SKY/WX    TMP DP  RH WIND       PRES   REMARKS
MANKATO        FAIR      68  58  70 CALM      29.79R
NEW ULM        CLEAR     63  54  72 CALM      29.77S
ST JAMES       CLEAR     63  55  77 CALM      29.79S
FAIRMONT       CLEAR     66  57  72 W3        29.80S
GLENCOE        FAIR      65  62  93 CALM      29.77S
FARIBAULT      FAIR      63  63 100 CALM      29.79R
OWATONNA       FAIR      63  59  88 CALM      29.79S
WASECA         FAIR      63  55  77 CALM      29.79S
ALBERT LEA     FAIR      63  57  82 CALM      29.79S
$$
MNZ078>079-086>088-094>096-271000-
   Southeast Minnesota

CITY           SKY/WX    TMP DP  RH WIND       PRES   REMARKS
ROCHESTER      FAIR      66  62  87 S6        29.80S
RED WING       FAIR      61  57  88 CALM      29.77S
STANTON        FAIR      63  59  88 CALM      29.77S
DODGE CENTER   FAIR      66  57  72 CALM      29.80S
WINONA         FAIR      66  64  94 CALM      29.78S
AUSTIN         FAIR      63  59  88 E3        29.79S
PRESTON        FAIR      67  63  86 S3        29.81S
$$
ABBREVIATIONS USED IN REMARKS
   TC - TEMPERATURES IN CELSIUS
  WCI - WIND CHILL INDEX
   HX - HEAT INDEX
  VSB - VISIBILITY
$$




USA.gov is the U.S. government's official web portal to all federal, state and local government web resources and services.